User: anonymous   Login
Location: Unspecified
(0.0000°N, 0.0000°E)
Time: 23:35:24
(UTC+00:00)
Language:

USA 236 - Orbit

View from above orbital plane
View from above orbital plane
View from above satellite
View from above satellite

Ground track
Ground track

The orbit data is extracted from the following two-line orbital elements,

1 38466U 12033A   18108.96195340 0.00000000  00000-0  00000-0 0    04
2 38466   1.3464 183.0960 0003459  90.7205 269.3391  1.00270000    01
Epoch (UTC): 18 April 2018 23:05:12
Eccentricity: 0.0003459
inclination: 1.3464°
perigee height: 35772 km
apogee height: 35801 km
right ascension of ascending node: 183.0960°
argument of perigee: 90.7205°
revolutions per day: 1.00270000
mean anomaly at epoch: 269.3391°
orbit number at epoch: 0

The dashed part of the orbit path shows where the satellite is in the earth's shadow,  

DLR